Location: Aiyekoto
(8.4333°N, 4.3667°E)
Time: 12:55:14
(UTC+00:00)

ADEOS - Pass Details

Date: 06 October 2020
Orbit: 792 x 794 km, 98.9° (Epoch: 27 October)

Event Time Altitude Azimuth Distance (km) Brightness Sun altitude
Rises 03:44:15 0° 15° (NNE) 3,279 6.9 -27.0°
Reaches altitude 10° 03:46:34 10° 16° (NNE) 2,351 6.2 -26.5°
Maximum altitude 03:51:45 78° 102° (ESE) 812 3.6 -25.2°
Drops below altitude 10° 03:56:57 10° 189° (S) 2,355 5.9 -23.9°
Sets 03:59:17 0° 190° (S) 3,285 6.7 -23.3°
